Regional Weather Roundup
Issued by NWS State College, PA

Home | Current Version | Previous Version | Text Only | Print | Product List | Glossary On
Versions: 1 2 3 4 5 6 7 8 9 10 11 12 13 14 15 16 17 18 19 20 21 22 23 24 25 26 27 28 29 30 31 32 33 34 35 36 37 38 39 40 41 42 43 44 45 46 47 48 49 50
000
ASUS41 KCTP 290510
RWRCTP

REGIONAL WEATHER ROUNDUP
NATIONAL WEATHER SERVICE STATE COLLEGE PA
100 AM EDT FRI MAY 29 2015

Note: "fair" indicates few or no clouds below 12,000 feet with no
significant weather and/or obstructions to visibility.

* = STATION THAT DOES NOT REPORT PRECIPITATION /E.G. RAIN...SNOW...ETC/
    THUNDER OR FOG.

PAZ002>004-007>009-013>016-020>023-029>032-290600-
WESTERN PENNSYLVANIA

CITY           SKY/WX    TMP DP  RH WIND       PRES   REMARKS
ERIE           CLEAR     63  53  70 SE3       30.24F
MEADVILLE      CLEAR     64  53  67 E6        30.26F
FRANKLIN*      CLEAR     61  52  72 E7        30.28F
NEW CASTLE     FAIR      58  58 100 CALM      30.25F
BEAVER COUNTY  NOT AVBL
BUTLER*        CLEAR     57  54  88 NE5       30.27F
PITTSBURGH INT CLEAR     66  53  63 CALM      30.24F
PITTSBURGH     CLEAR     67  48  50 E5        30.23F
INDIANA*       PTCLDY    59  55  88 CALM      30.30F
LATROBE        CLEAR     59  59 100 CALM      30.26F
WASHINGTON CO* CLEAR     55  55 100 CALM      30.25F
$$

PAZ004>006-010>012-017>019-024>028-033>037-041-042-045-046-049>053-290600-
CENTRAL PENNSYLVANIA

CITY           SKY/WX    TMP DP  RH WIND       PRES   REMARKS
BRADFORD       CLEAR     51  49  92 CALM      30.31F
DUBOIS         CLEAR     62  52  69 E6        30.28F
CLEARFIELD     CLEAR     56  51  84 CALM      30.29F
JOHNSTOWN      CLEAR     62  50  64 NE6       30.29F
ALTOONA        CLEAR     62  52  69 NE3       30.28F
STATE COLLEGE  PTCLDY    61  54  77 CALM      30.29R
WILLIAMSPORT   CLEAR     60  55  83 CALM      30.27R
SELINSGROVE    CLEAR     60  56  86 NW3       30.27R
FT INDIANTOWN  CLEAR     66  55  67 E3        30.25R
CAPITAL CITY   FAIR      65  56  72 CALM      30.25R
HARRISBURG     FAIR      68  57  68 N3        30.24R
YORK           CLEAR     62  60  93 CALM      30.25R
$$

PAZ038>040-043-044-047-048-054-055-060>062-067>071-290600-
EASTERN PENNSYLVANIA

CITY           SKY/WX    TMP DP  RH WIND       PRES   REMARKS
SCRANTON       CLEAR     62  53  72 E5        30.29S
MOUNT POCONO   CLEAR     57  32  38 N6        30.30S
ALLENTOWN      CLEAR     65  53  65 N5        30.26S
QUAKERTOWN*    CLEAR     68  54  60 N6        30.26S
READING        CLEAR     68  51  54 N5        30.25R
LANCASTER      CLEAR     68  54  60 NE5       30.24R
COATESVILLE    CLEAR     68  55  64 N5        30.26R
POTTSTOWN      CLEAR     65  53  65 CALM      30.27R
BLUE BELL      CLEAR     66  54  63 CALM      30.24R
DOYLESTOWN     CLEAR     67  52  58 N6        30.25R
WILLOW GROVE   NOT AVBL
NORTH PHILA    CLEAR     72  51  47 NE8       30.25R
PHILADELPHIA   PTCLDY    76  52  43 NE13      30.23S
$$


USA.gov is the U.S. government's official web portal to all federal, state and local government web resources and services.